#timestamp,LO_Frequency,Hit,StdDev 
1515189615.5,286047008.6,N
1515189635.4,286047008.0,N
1515189655.2,286047006.4,N
1515189675.0,286047007.3,N
1515189675.9,286047007.3,N
1515189695.8,286047008.4,N
1515189715.6,286047009.3,N
1515189735.4,286047014.0,Y
1515189755.3,286047009.4,P
1515189775.1,286047010.5,P
1515189776.0,286047010.5,P
1515189795.8,286047012.4,Y
1515189815.7,286047001.6,P
1515189835.5,286047001.9,N
1515189855.3,286047006.0,N
1515189875.2,286047003.5,N
1515189895.9,286047006.7,N
1515189915.7,286047007.0,N
1515189935.6,286047009.2,Y
1515189955.4,286047004.0,P
1515189975.2,286047001.0,N
1515189995.1,286047001.8,N
1515189996.0,286047001.8,N
1515190015.8,286046998.5,N
1515190035.6,286047001.9,N
1515190055.5,286047001.7,N
1515190075.3,286047003.9,N
1515190095.1,286047001.7,N
1515190115.8,286047000.9,N
1515190135.7,286047000.2,N
1515190155.5,286047002.5,N
1515190175.3,286047002.3,N
1515190195.2,286047003.5,N
1515190215.9,286046999.8,N
1515190235.7,286047000.2,N
1515190255.6,286047000.9,N
1515190275.4,286046999.1,N
1515190295.2,286046995.1,N
1515190315.1,286046994.9,N
1515190316.0,286046994.9,N
1515190335.8,286046996.9,N
1515190355.6,286047000.8,N
1515190375.4,286046999.5,N
1515190395.3,286046996.5,N
1515190415.1,286046997.0,N
1515190435.8,286046999.2,N
1515190455.7,286046994.9,N
1515190475.5,286046998.4,N
1515190495.3,286046999.9,N
1515190515.2,286047004.2,N
1515190535.9,286046996.8,N
1515190555.7,286046998.0,N
1515190575.6,286046996.0,N
1515190595.4,286046996.4,N
1515190615.2,286046995.6,N
1515190635.1,286046996.0,N
1515190636.0,286046996.0,N
1515190655.8,286046993.9,N
1515190675.6,286046994.5,N
1515190695.4,286046994.6,N
1515190715.3,286046993.1,N
1515190735.1,286046993.6,N
1515190755.8,286046992.4,N
1515190775.7,286046996.2,N
1515190795.5,286046996.0,N
1515190815.3,286046994.7,N
1515190835.2,286046994.3,N
1515190855.9,286046999.4,N
1515190875.7,286046997.2,N
1515190895.6,286046995.6,N
1515190915.4,286046994.8,N
1515190935.2,286046992.1,Y
1515190955.1,286046995.1,P
1515190956.0,286046995.1,P
1515190975.8,286046997.1,P
1515190995.6,286046999.1,N
1515191015.5,286046996.9,N
1515191035.3,286046996.3,N
1515191055.1,286046998.0,N
1515191075.8,286046997.4,N
1515191095.7,286046991.8,Y
1515191115.5,286046995.1,P
1515191135.4,286046992.6,P
1515191155.2,286046993.0,P
1515191175.0,286046990.7,Y
1515191175.9,286046990.7,P
1515191195.8,286046996.4,N
1515191215.6,286046994.1,N
1515191235.4,286046993.6,Y
1515191255.3,286046998.5,P
1515191275.1,286046999.6,N
1515191276.0,286046999.6,N
1515191295.8,286046996.5,N
1515191315.7,286046996.9,N
1515191335.5,286046995.2,N
1515191355.3,286046995.5,N
1515191375.1,286046997.2,N
1515191395.9,286046999.5,N
1515191415.7,286046999.5,N
1515191435.5,286047002.8,N
1515191455.4,286047000.1,N
1515191475.2,286046998.1,N
1515191495.0,286046998.4,N
1515191495.9,286046998.4,N
1515191515.8,286046998.4,N
1515191535.6,286046999.5,N
1515191555.4,286046996.6,N
1515191575.3,286046997.1,N
1515191595.1,286046999.4,N
1515191596.0,286046999.4,N
1515191615.8,286047000.3,N
1515191635.6,286047004.1,N
1515191655.5,286047004.6,N
1515191675.3,286047009.0,Y
1515191695.1,286047009.4,P
1515191715.9,286047009.3,N
1515191735.7,286047009.7,N
1515191755.6,286047016.1,Y
1515191775.4,286047012.3,P
1515191795.2,286047015.2,P
1515191815.0,286047011.3,P
1515191816.0,286047011.3,Y
1515191835.8,286046998.5,P
1515191855.6,286047000.8,N
1515191875.4,286047000.1,N
1515191895.3,286047003.9,N
1515191915.1,286047005.2,N
1515191935.8,286047004.9,N
1515191955.7,286047006.2,N
1515191975.5,286047011.6,Y
1515191995.3,286047008.7,P
1515192015.2,286047009.2,P
1515192035.9,286047010.4,P
1515192055.7,286047010.7,Y
1515192075.6,286047000.1,P
1515192095.4,286047003.8,N
1515192115.2,286047006.0,N
1515192135.1,286047002.9,N
1515192136.0,286047002.9,N
1515192155.8,286047000.1,N
1515192175.6,286047001.9,N
1515192195.5,286047004.0,N
1515192215.3,286047005.8,N
1515192235.1,286046999.8,N
1515192255.8,286047001.4,N
1515192275.7,286047000.7,N
1515192295.5,286046996.9,N
1515192315.3,286046995.8,N
1515192335.2,286046994.1,N
1515192355.9,286046992.4,N
1515192375.7,286046991.8,N
1515192395.6,286046994.6,N
1515192415.4,286046994.4,N
1515192435.2,286046990.7,N
1515192455.1,286046989.2,N
1515192456.0,286046989.2,N
1515192475.8,286046986.9,N
1515192495.6,286046989.9,N
1515192515.5,286046987.5,N
1515192535.3,286046987.0,N
1515192555.1,286046986.9,N
1515192575.8,286046987.6,N
1515192595.7,286046986.2,N
1515192615.5,286046984.9,N
1515192635.3,286046982.8,N
1515192655.2,286046986.3,N
1515192675.9,286046983.7,N
1515192695.7,286046982.7,N
1515192715.6,286046979.0,Y
1515192735.4,286046988.2,P
1515192755.2,286046987.2,P
1515192775.1,286046987.3,P
1515192776.0,286046987.3,Y
1515192795.8,286046999.1,P
1515192815.6,286046994.9,N
1515192835.5,286046999.0,N
1515192855.3,286046999.3,N
1515192875.1,286046999.0,N
1515192895.9,286047000.3,N
1515192915.7,286047002.3,N
1515192935.5,286046998.3,N
1515192955.4,286046997.6,N
1515192975.2,286046998.2,N
1515192995.0,286046998.9,N
1515192995.9,286046998.9,N
1515193015.8,286046995.2,N
1515193035.6,286046997.0,N
1515193055.4,286046997.5,N
1515193075.2,286046996.5,N
1515193095.1,286046999.3,N
1515193096.0,286046999.3,N
1515193115.8,286046998.3,N
1515193135.6,286047001.7,N
1515193155.5,286047002.6,N
1515193175.3,286047000.7,N
1515193195.1,286046998.0,N
